Weather History for Fond du Lac, WI

Change the Weather History Date:

Thursday, November 14, 2013

  Actual Average Record
Temperature  
Mean Temperature 38 °F -  
Max Temperature 46 °F 42 °F 69 °F (1971)
Min Temperature 30 °F 27 °F 10 °F (1996)
Degree Days  
Heating Degree Days 27    
Moisture  
Dew Point 23 °F    
Average Humidity 54    
Maximum Humidity 65    
Minimum Humidity 42    
Precipitation  
Precipitation 0.00 in - - ()
Sea Level Pressure  
Sea Level Pressure 29.92 in    
Wind  
Wind Speed 14 mph (SSW)    
Max Wind Speed 17 mph    
Max Gust Speed 25 mph    
Visibility 10 miles    
Events Rain    
Averages and records for this station are not official NWS values.
T = Trace of Precipitation, MM = Missing Value Source: NWS Daily Summary

Daily Weather History Graph

Daily Weather History Graph

Search for Another Location

Airport:

Trip Planner

Search our weather history database for the weather conditions in past years. The results will help you decide how hot, cold, wet, or windy it might be!

Date:

Astronomy

Nov. 14, 2013 Rise Set
Actual Time 6:47 AM CST 4:29 PM CST
Civil Twilight 6:16 AM CST 4:59 PM CST
Nautical Twilight 5:41 AM CST 5:34 PM CST
Astronomical Twilight 5:07 AM CST 6:08 PM CST
Moon 2:54 PM CST (11/14) 3:37 AM CST (11/14)
Length of Visible Light 10h 43m
Length of Day
9h 41m
Waxing Gibbous, 92% of the Moon is Illuminated
Nov 14
Waxing Gibbous
Nov 17
Full
Nov 25
Last Quarter
Dec 2
New
Dec 9
First Quarter

Hourly Weather History & Observations

Time (CST) Temp. Windchill Dew Point Humidity Pressure Visibility Wind Dir Wind Speed Gust Speed Precip Events Conditions
12:53 AM 33.1 °F 23.4 °F 17.1 °F 52% 30.00 in 10.0 mi SSW 13.8 mph - N/A   Clear
1:53 AM 33.1 °F 22.2 °F 17.1 °F 52% 29.99 in 10.0 mi SSW 17.3 mph - N/A   Clear
2:53 AM 32.0 °F 21.2 °F 17.1 °F 54% 29.98 in 10.0 mi SSW 16.1 mph 25.3 mph N/A   Clear
3:53 AM 32.0 °F 21.6 °F 17.1 °F 54% 29.97 in 10.0 mi SSW 15.0 mph - N/A   Clear
4:53 AM 32.0 °F 22.1 °F 18.0 °F 56% 29.97 in 10.0 mi SSW 13.8 mph 21.9 mph N/A   Clear
5:53 AM 30.9 °F 20.2 °F 18.0 °F 59% 29.97 in 10.0 mi SSW 15.0 mph - N/A   Clear
6:53 AM 30.9 °F 21.7 °F 18.0 °F 59% 29.95 in 10.0 mi SSW 11.5 mph - N/A   Clear
7:53 AM 33.1 °F 23.4 °F 19.0 °F 56% 29.96 in 10.0 mi SW 13.8 mph 24.2 mph N/A   Clear
8:53 AM 35.1 °F 26.9 °F 19.9 °F 54% 29.95 in 10.0 mi SW 11.5 mph 20.7 mph N/A   Clear
9:53 AM 37.9 °F 30.0 °F 21.0 °F 51% 29.93 in 10.0 mi SW 12.7 mph 21.9 mph N/A   Clear
10:53 AM 41.0 °F 33.1 °F 21.9 °F 47% 29.92 in 10.0 mi SW 15.0 mph - N/A   Clear
11:53 AM 44.1 °F 37.4 °F 23.0 °F 43% 29.89 in 10.0 mi WSW 13.8 mph 21.9 mph N/A   Clear
12:53 PM 46.0 °F 39.6 °F 24.1 °F 42% 29.86 in 10.0 mi SW 15.0 mph 21.9 mph N/A   Clear
1:53 PM 46.0 °F 39.6 °F 25.0 °F 44% 29.87 in 10.0 mi SSW 15.0 mph 23.0 mph N/A   Clear
2:53 PM 46.0 °F 40.2 °F 25.0 °F 44% 29.87 in 10.0 mi SW 12.7 mph - N/A   Clear
3:53 PM 45.0 °F 38.9 °F 25.0 °F 46% 29.89 in 10.0 mi SW 12.7 mph - N/A   Clear
4:53 PM 37.9 °F 32.7 °F 26.1 °F 62% 29.89 in 10.0 mi South 6.9 mph - N/A   Clear
5:53 PM 41.0 °F 34.3 °F 26.1 °F 55% 29.90 in 10.0 mi SSW 11.5 mph - N/A   Mostly Cloudy
6:53 PM 42.1 °F 35.7 °F 26.1 °F 53% 29.89 in 10.0 mi SSW 11.5 mph - N/A   Mostly Cloudy
7:53 PM 42.1 °F 34.9 °F 26.1 °F 53% 29.88 in 10.0 mi SSW 13.8 mph - N/A   Overcast
8:53 PM 41.0 °F 33.1 °F 28.0 °F 60% 29.89 in 10.0 mi SSW 15.0 mph - 0.00 in Rain Light Rain
9:53 PM 41.0 °F 34.7 °F 28.0 °F 60% 29.89 in 10.0 mi SW 10.4 mph - 0.00 in   Overcast
10:53 PM 39.0 °F 32.8 °F 28.0 °F 65% 29.88 in 10.0 mi SSW 9.2 mph - 0.00 in   Partly Cloudy
11:53 PM 39.0 °F 34.0 °F 28.0 °F 65% 29.88 in 10.0 mi SSW 6.9 mph - N/A   Scattered Clouds